Theta_e
332 326 325 319 311 313 309 312 317 316 316 322 323 322 322 327 329 329 354 355 353 358 362 362 366 367 367 366 364 362 362 361 362 362 362 362 360 360 362 363 362 361 358 360 359 358 357 355 354
324 322 319 316 309 306 309 316 315 318 321 323 322 323 322 323 343 347 351 354 356 360 364 361 365 366 367 366 364 362 362 362 362 362 362 361 359 361 362 363 362 359 357 356 357 357 355 354 354
326 320 312 311 309 305 309 317 318 321 322 321 319 324 327 332 346 350 359 355 359 362 363 363 365 365 366 366 364 362 362 362 362 362 362 360 360 361 362 362 362 358 356 355 354 354 354 353 353
317 313 312 307 306 312 313 318 321 320 322 323 322 318 327 336 339 355 360 356 359 361 361 361 364 364 365 365 364 363 363 363 362 362 361 360 361 362 361 362 361 359 356 355 355 355 354 354 353
315 311 304 304 305 311 317 319 322 319 320 321 321 319 323 340 345 357 355 355 357 358 360 360 363 363 364 364 364 363 362 361 361 361 361 361 361 360 360 360 359 358 356 356 356 355 356 355 354
307 308 301 300 304 309 314 319 320 320 321 321 319 320 323 345 344 357 354 356 357 356 360 358 362 362 362 362 362 362 361 360 360 360 360 361 360 360 359 359 360 359 359 358 357 356 355 355 353
306 304 300 302 303 306 310 316 317 318 320 320 324 318 325 336 347 357 355 356 357 357 359 356 353 359 361 360 360 360 359 359 359 358 359 359 359 359 359 358 358 358 358 358 357 355 355 354 353
310 307 302 303 302 304 311 313 316 316 316 324 325 317 319 342 348 354 355 355 356 356 356 355 352 351 352 356 360 359 359 358 358 358 358 358 359 359 358 356 357 358 358 358 356 355 354 353 354
314 304 301 302 303 305 311 309 313 316 314 317 321 322 329 345 346 348 354 353 353 354 355 353 351 350 348 347 354 357 357 358 358 358 358 355 350 354 356 352 356 357 356 355 355 355 354 353 352
309 304 305 309 309 308 310 310 309 309 309 310 313 320 328 337 342 342 347 350 351 351 353 353 353 350 348 347 354 351 350 350 351 350 353 349 349 351 348 351 356 357 354 353 353 353 353 351 344
310 304 310 311 313 312 310 309 311 308 307 310 311 316 320 328 336 339 343 351 351 353 353 353 357 358 352 349 353 349 350 349 349 350 351 352 348 350 346 348 351 353 353 350 348 346 344 342 340
306 309 309 310 313 311 309 311 309 309 310 313 314 316 317 324 330 337 339 348 352 353 354 355 357 356 360 350 352 349 350 351 350 351 353 353 349 352 350 345 349 350 349 349 348 345 347 342 340
306 308 310 310 311 312 312 309 309 310 312 314 314 315 316 317 326 333 340 344 355 355 356 357 362 360 358 363 353 352 352 352 354 354 356 353 353 354 352 350 348 348 346 347 346 346 347 345 345
309 309 309 310 310 310 308 308 309 311 314 313 313 313 314 316 318 325 339 343 352 357 357 360 361 370 365 361 364 358 360 357 356 355 356 357 357 358 353 352 350 349 348 347 346 346 346 344 344
308 304 307 308 308 307 309 305 305 311 313 311 312 313 313 315 318 320 336 344 350 356 360 364 363 367 369 368 364 359 356 356 355 355 360 358 359 362 359 353 351 350 352 353 352 349 348 346 344
304 304 299 306 307 307 307 300 307 311 311 310 311 312 313 314 316 320 329 347 350 354 359 360 360 363 366 366 364 360 358 356 356 357 356 358 361 359 360 353 352 352 353 349 348 347 344 343 343
302 297 299 302 308 306 305 301 307 311 311 310 311 313 313 313 316 322 329 348 351 357 361 361 362 360 362 367 365 364 367 360 360 360 358 361 360 359 359 355 353 362 351 350 349 348 351 350 348
297 298 300 301 305 306 303 303 308 310 309 310 311 312 313 313 314 320 336 349 358 359 361 365 363 365 359 360 364 359 359 358 358 359 359 361 359 358 361 356 360 357 355 349 349 354 353 351 349
302 301 301 303 308 305 303 304 306 309 309 309 311 312 313 314 316 320 337 351 356 359 360 362 360 368 358 355 355 352 351 354 355 356 359 360 359 359 362 358 355 356 353 354 352 352 346 343 345
301 299 301 305 307 306 305 303 307 308 309 310 311 312 313 315 315 319 326 346 348 354 358 363 361 361 358 356 356 355 355 354 354 355 358 360 356 357 356 356 354 355 355 352 344 345 339 341 342
299 299 300 300 304 306 304 301 305 308 310 310 311 313 314 314 314 318 321 328 338 348 354 359 362 360 354 355 356 357 358 353 353 356 355 355 354 355 355 355 356 354 352 343 341 344 346 339 345
295 302 301 301 300 296 303 293 302 306 307 309 310 312 313 314 315 317 320 323 334 341 350 355 355 356 353 353 352 354 348 349 349 351 351 352 353 353 352 352 352 353 347 343 344 344 348 343 340
296 302 301 301 300 299 299 295 301 306 304 307 310 311 313 315 316 316 318 322 327 335 343 352 352 353 352 350 352 352 355 349 348 347 355 354 351 351 348 351 351 349 346 347 347 347 347 348 343
302 300 300 300 299 291 297 296 298 303 305 308 310 311 313 314 316 317 319 322 325 331 340 350 352 347 346 348 352 356 354 349 345 346 348 351 346 349 348 347 350 351 351 349 347 349 347 346 347
299 297 289 287 289 288 299 297 299 307 309 310 311 311 313 315 316 316 317 318 321 325 340 350 346 341 344 348 348 350 351 351 349 347 344 345 343 348 347 346 347 350 346 346 346 347 345 343 341
296 298 291 285 286 290 298 293 299 309 312 312 313 313 314 315 316 317 317 319 319 341 344 343 342 340 345 346 346 348 350 347 345 347 344 342 342 341 342 342 344 343 340 340 341 339 338 340 335
296 294 301 294 296 292 295 300 305 308 309 312 313 313 313 314 316 317 318 320 339 340 339 339 339 340 340 341 342 344 345 343 341 342 342 337 338 335 335 335 335 335 334 335 336 333 336 334 335
297 302 292 295 287 286 293 296 297 304 306 310 312 317 321 318 318 321 329 336 335 334 335 336 336 336 337 338 339 339 339 338 337 337 334 334 334 333 332 331 330 330 331 331 332 331 333 332 329
296 294 296 298 296 290 289 294 306 307 309 312 319 317 317 319 323 326 329 329 330 332 334 334 334 335 333 334 334 332 331 331 330 329 329 328 328 327 325 324 324 324 325 326 326 326 325 324 327
300 297 297 292 293 295 296 298 314 310 313 315 310 312 315 319 322 324 325 327 328 328 330 331 330 329 329 328 326 324 324 324 323 321 322 322 322 321 320 319 319 319 319 321 320 319 319 318 318
Wind_Speed
14 14 11 8 10 10 19 21 20 4 4 1 3 9 11 8 12 6 9 6 20 21 21 19 16 17 16 16 16 16 16 16 16 16 15 14 13 13 12 10 11 11 11 10 10 10 10 9 9
13 9 8 9 14 17 16 22 18 9 6 7 7 7 10 1 16 11 12 11 20 21 19 19 16 17 16 16 16 17 16 15 15 15 15 14 14 14 12 11 11 11 10 9 9 9 9 9 8
14 12 10 11 18 20 20 20 19 15 8 7 4 4 6 10 9 8 13 16 19 19 18 18 17 17 17 16 16 16 16 16 15 15 14 13 13 12 11 10 10 10 9 9 9 9 9 9 8
9 8 9 18 25 29 29 24 5 10 9 9 9 5 8 10 4 7 13 16 19 18 19 20 17 18 17 17 18 17 17 17 17 15 14 13 12 10 9 8 8 9 9 9 9 8 8 9 8
11 11 13 21 28 28 24 27 28 11 15 14 10 13 5 11 6 9 13 15 17 18 17 19 16 17 18 17 16 16 16 17 17 17 17 15 13 11 10 9 9 9 9 9 9 9 8 8 7
11 13 17 21 27 29 29 27 19 12 15 9 7 11 4 13 8 11 14 16 16 17 17 18 15 15 15 15 15 15 15 16 16 16 16 15 13 12 11 10 9 9 9 9 9 9 8 7 6
19 16 21 24 23 27 25 27 25 16 18 18 7 11 7 12 12 11 14 16 16 17 17 17 17 15 14 14 14 14 14 15 15 14 14 14 13 11 10 9 9 9 9 9 8 8 8 7 8
17 17 27 24 22 26 19 22 22 19 23 19 15 15 12 16 11 12 14 16 17 17 17 18 17 16 15 14 12 12 12 12 12 12 12 11 10 9 9 8 8 9 8 8 9 9 9 8 7
19 19 22 29 26 21 21 16 14 14 17 21 19 15 4 12 10 10 12 15 16 15 18 18 18 17 16 16 13 11 11 10 10 10 9 10 10 12 13 12 14 9 7 7 8 8 7 8 9
23 18 31 23 22 19 20 18 13 16 18 17 13 18 11 10 10 13 15 16 18 18 19 18 18 17 17 14 15 13 12 11 11 11 12 10 10 10 10 10 12 9 9 8 8 8 8 9 10
26 29 21 24 23 20 18 16 17 16 16 18 19 17 12 12 13 14 15 18 19 19 16 19 17 15 16 13 12 8 8 8 9 13 12 11 8 8 8 7 8 8 10 8 10 10 9 12 11
32 29 28 29 19 16 19 14 19 18 18 15 15 18 18 13 14 15 16 15 19 19 18 18 19 15 13 11 11 11 10 10 9 11 13 9 7 7 7 7 8 8 9 10 10 8 10 12 13
33 29 25 22 27 22 17 20 21 21 18 19 8 14 8 12 13 12 15 16 15 18 18 16 17 15 13 9 11 11 11 10 11 11 13 10 9 7 7 7 7 7 8 9 9 9 8 9 10
27 26 27 27 21 23 22 21 20 20 15 18 17 15 15 17 16 14 15 14 17 17 17 16 17 13 12 11 10 8 7 10 9 9 11 14 8 7 7 7 7 7 7 7 6 8 8 9 10
28 25 25 28 28 22 19 27 30 20 17 18 17 15 18 22 20 16 15 16 16 16 17 15 15 15 13 12 9 9 9 8 8 9 10 13 10 8 7 8 7 8 6 6 6 8 7 7 10
19 29 26 26 23 27 21 28 26 24 22 21 19 21 22 20 22 17 16 17 16 17 19 18 16 17 15 12 10 9 8 8 8 7 9 12 8 10 6 9 7 7 5 7 8 8 9 9 9
25 25 32 25 27 22 29 24 25 15 25 26 21 20 19 21 23 17 17 17 17 18 17 16 18 18 13 12 7 9 8 7 5 2 1 9 7 5 10 8 8 6 7 7 7 7 6 6 7
33 30 23 25 26 27 27 28 23 19 17 22 25 25 22 21 22 18 17 18 12 10 10 16 13 15 14 8 6 7 6 7 6 2 3 7 8 11 7 10 8 4 4 9 7 4 3 4 4
26 26 26 25 21 28 24 23 25 21 15 19 20 22 23 23 22 20 17 17 19 15 14 15 13 13 12 9 9 9 10 7 6 5 8 9 9 11 10 7 7 7 7 8 4 4 4 3 4
29 29 25 20 24 15 19 21 24 25 22 20 21 19 21 21 22 21 18 16 16 15 15 16 13 13 11 9 9 8 7 8 7 7 7 10 9 7 8 9 8 7 6 4 1 5 3 7 5
31 28 27 17 13 15 16 21 24 24 23 21 19 20 19 19 22 22 22 17 16 16 16 15 14 15 9 8 7 5 5 7 6 4 4 6 8 9 8 7 5 6 3 4 4 7 9 7 7
28 29 25 24 15 18 19 16 21 21 25 24 24 19 20 21 19 19 21 18 18 17 16 14 16 16 11 12 8 10 9 9 9 8 6 6 7 6 5 7 7 5 4 5 5 5 9 6 7
29 22 25 26 21 17 24 17 20 29 28 28 26 25 22 20 22 24 21 20 18 17 16 14 18 15 12 10 10 9 10 7 5 5 8 6 4 5 5 3 5 6 6 6 9 8 9 7 7
24 23 24 26 17 17 19 18 17 18 24 24 25 25 24 22 21 21 23 21 19 17 17 15 16 14 12 9 7 11 8 3 6 4 6 5 3 3 3 5 3 5 5 7 5 6 7 7 6
24 21 10 15 18 14 25 22 17 22 19 22 21 24 23 21 21 21 22 21 19 19 18 16 16 14 13 13 9 8 9 7 7 6 3 6 4 3 3 4 4 3 3 5 4 4 6 5 7
28 24 15 18 24 25 26 27 21 15 10 7 13 22 23 22 20 21 22 19 19 19 19 16 15 14 12 12 12 10 13 8 6 8 7 7 5 5 7 4 2 2 2 3 3 6 5 6 5
28 25 26 17 22 19 22 22 24 14 8 5 3 9 22 22 21 20 19 17 22 17 15 14 14 13 14 12 10 11 10 10 10 10 8 7 7 7 5 5 5 5 5 5 7 6 6 6 7
23 25 24 16 18 19 23 21 14 21 17 12 15 10 12 6 10 14 18 21 18 15 13 13 13 13 13 14 13 11 12 12 10 9 9 9 8 7 6 5 4 4 4 5 7 8 8 8 7
18 20 23 20 16 16 17 21 15 21 19 15 18 13 12 13 17 18 19 19 16 15 13 13 14 16 15 15 14 14 12 12 11 9 8 8 6 5 5 5 4 5 5 6 7 9 11 12 10
16 21 29 14 23 15 12 8 15 22 20 22 15 14 13 14 18 18 18 17 16 16 17 16 17 17 15 15 14 14 12 11 11 9 8 7 6 4 5 4 4 5 7 8 9 11 12 13 14
Wind_Direction
251 238 240 256 244 230 250 240 246 117 195 284 7 258 319 358 49 67 127 130 141 138 152 156 146 145 148 152 149 147 147 148 145 142 144 145 145 146 144 140 130 127 131 133 135 131 134 136 136
232 224 236 260 236 244 235 241 239 206 159 114 242 241 241 3 72 116 150 162 145 138 149 157 147 146 148 150 148 145 145 144 142 144 147 148 150 152 150 144 134 135 138 139 139 139 139 139 140
252 226 244 219 235 240 246 233 236 184 114 208 248 237 357 45 90 127 95 157 140 144 155 145 149 146 147 146 145 144 142 141 143 145 146 149 149 148 146 143 138 145 145 147 147 144 146 148 149
213 204 246 247 234 229 247 261 297 169 199 221 238 242 141 64 346 53 138 152 137 148 164 138 148 146 148 150 146 145 145 144 143 145 146 148 146 140 139 141 146 152 152 155 151 150 152 153 151
235 243 230 229 238 249 235 238 267 198 246 200 212 239 181 104 89 116 149 156 152 155 155 154 148 147 149 147 145 145 147 147 148 151 152 152 148 147 144 149 156 160 163 163 158 161 160 157 158
215 232 236 232 237 233 250 261 234 232 227 212 180 246 233 114 130 141 159 159 161 159 143 153 146 146 144 143 145 148 150 151 152 154 153 153 151 152 153 160 163 165 172 167 170 172 168 160 163
231 217 237 244 245 235 228 240 251 235 245 246 209 256 211 161 107 149 161 162 163 159 145 153 166 153 141 142 146 149 154 154 153 156 155 155 154 154 159 165 171 173 174 173 175 177 178 177 184
236 252 244 238 247 249 244 225 233 237 233 249 256 211 250 112 143 148 166 166 166 160 154 161 165 168 171 161 141 148 155 153 152 153 154 153 152 158 168 171 184 184 179 178 178 185 188 191 204
224 243 238 238 240 245 251 246 227 246 251 246 245 233 93 116 145 155 167 173 171 165 160 164 164 169 178 165 156 148 152 146 145 151 152 155 188 181 172 200 157 180 186 193 198 200 199 205 218
224 230 237 240 242 246 243 238 213 234 226 238 218 235 133 162 180 173 180 185 180 174 166 166 164 173 180 166 155 178 171 177 182 183 176 200 206 185 201 183 163 172 190 200 206 215 218 220 236
220 237 236 241 253 260 267 228 200 205 223 212 223 212 175 202 196 197 191 190 185 177 172 169 162 176 183 173 157 181 174 177 188 188 180 212 201 185 216 178 184 201 198 212 198 204 226 232 240
228 232 244 268 254 233 261 259 241 224 245 243 212 217 223 185 212 209 194 203 186 174 176 173 161 178 198 174 165 187 181 185 191 192 186 209 217 193 218 220 190 197 202 220 224 216 221 233 245
230 235 240 246 256 261 227 241 246 244 225 253 239 225 200 211 219 216 222 195 191 172 176 179 161 179 193 199 171 197 192 186 194 184 187 215 211 207 213 236 246 207 221 206 231 247 252 233 245
233 237 242 245 251 237 248 242 239 238 234 226 235 215 222 230 221 223 211 220 187 175 175 175 168 173 187 200 177 198 196 173 202 200 189 207 215 207 217 219 223 252 239 253 256 234 251 247 251
254 247 238 234 237 234 250 246 237 233 217 218 216 223 226 223 225 223 201 219 183 181 174 174 180 175 187 204 185 194 191 224 196 220 192 194 213 226 231 220 227 235 238 264 276 277 269 255 271
236 239 239 225 225 237 223 247 227 228 223 208 224 224 222 231 227 212 220 201 197 194 177 182 182 178 184 196 193 201 205 202 213 210 198 198 205 233 209 255 233 237 240 246 237 242 244 255 257
227 232 226 239 219 216 220 240 253 199 215 218 213 225 209 210 217 213 215 195 199 193 171 178 181 182 176 203 171 207 212 222 208 189 166 165 163 228 243 233 249 215 242 248 254 256 276 334 315
214 222 241 232 227 200 225 231 254 206 201 208 217 221 221 218 215 207 205 191 169 166 157 180 181 175 162 185 173 185 210 206 229 147 152 166 195 209 239 245 263 249 251 253 242 316 281 269 268
241 228 231 226 229 224 210 238 219 241 195 219 211 216 223 222 210 199 199 189 169 180 182 175 185 164 154 174 173 175 198 214 211 196 205 209 207 218 228 252 268 249 237 270 278 245 281 281 245
240 244 247 233 217 226 205 232 243 217 221 212 215 214 208 213 208 192 188 186 181 187 186 164 181 160 168 173 187 188 193 194 199 199 197 210 219 210 234 235 236 241 251 266 308 288 262 253 221
224 229 233 238 192 211 230 237 227 233 215 207 215 209 217 203 207 194 171 181 182 179 185 180 155 157 156 155 176 144 156 183 203 174 167 214 226 228 228 250 236 231 214 243 218 219 270 281 280
230 218 240 239 228 212 202 237 222 221 221 218 209 209 201 209 206 204 175 176 182 180 182 184 135 149 160 161 158 169 182 181 196 178 202 198 224 239 221 222 232 219 211 197 250 247 248 255 263
229 229 215 236 232 231 200 219 249 198 215 209 209 210 210 197 199 204 190 181 189 180 168 175 128 153 143 151 178 182 211 159 171 193 127 241 169 238 249 246 248 222 215 220 247 251 251 251 264
219 221 216 226 213 225 235 198 223 193 212 213 198 206 204 203 199 201 192 181 180 176 160 152 135 137 140 155 187 205 167 147 135 181 173 167 140 230 240 311 225 248 245 254 262 281 261 277 289
210 199 192 208 214 222 215 228 234 210 184 206 194 193 201 197 198 191 196 187 187 178 144 134 135 138 153 170 161 161 137 156 135 182 121 107 120 70 74 24 333 329 3 311 310 270 268 253 273
196 201 202 188 194 210 223 215 205 243 147 166 181 183 195 193 192 187 190 184 187 112 118 135 137 149 162 141 161 150 153 135 115 73 96 81 93 60 45 20 359 328 283 298 315 292 259 313 295
185 207 211 216 199 218 207 214 217 167 137 143 241 181 184 186 190 187 170 178 107 118 126 132 131 127 124 124 114 106 113 100 93 108 118 101 112 121 80 53 34 10 343 345 329 290 308 302 297
208 196 215 236 212 203 198 197 183 182 161 172 183 96 51 132 169 124 97 92 103 112 112 120 129 127 132 129 124 115 109 106 106 99 95 99 102 91 87 57 30 349 335 324 327 307 308 310 296
187 198 213 225 230 209 203 190 173 180 164 162 107 88 79 85 92 98 103 104 111 127 135 132 130 129 120 106 103 100 97 93 89 88 83 82 75 84 100 89 11 341 327 320 314 303 293 287 295
209 207 208 215 218 258 209 95 345 170 128 104 102 94 93 94 105 106 105 113 125 133 133 122 119 111 104 100 97 90 86 81 77 74 71 61 59 53 24 17 33 333 328 323 313 303 307 302 300